Flag for Germany Weather past 2 weeks in Augsburg, Bavaria, Germany

Now
54 °F

Partly sunny.


Feels Like: 51 °F
Forecast: 37 / 67 °F
Wind: 9 mph from Northwest

Location: Augsburg Airport

Current Time: May 27, 2015 at 12:31:45 PM

Latest Report: May 27, 2015 at 11:50 AM


Visibility: N/A

Pressure: 30.21 "Hg

Humidity: 58%

Dew point: 39 °F

Location of AugsburgLocation

Historic Weather in Augsburg — Graph

°F

Augsburg temperature yesterday

Maximum temperature yesterday: 59 °F (at 2:20 PM)
Minimum temperature yesterday: 50 °F (at 8:20 AM)
Average temperature yesterday: 54 °F

Past Weeks' High & Low Weather Summary

 TemperatureHumidityPressure
High82 °F (May 12, 4:50 PM)100% (May 15, 6:50 AM)30.30 "Hg (May 15, 6:50 AM)
Low41 °F (May 22, 6:50 AM)23% (May 12, 2:50 PM)29.74 "Hg (May 18, 6:50 PM)
Average59 °F65%30.05 "Hg
* Reported May 12 11:20 AM — May 27 11:20 AM, Augsburg, Weather by CustomWeather, © 2015

Note: Actual official high and low records may vary slightly from our data, if they occured in-between our weather recording intervals... More about our weather records

Advertising

Augsburg weather history for previous 24 hours

 ConditionsComfort  
Time TempWeatherWind HumidityBarometerVisibility
11:20 AM
Wed, May 27
52 °FBroken clouds.8 mph62%30.21 "HgN/A
10:50 AM54 °FBroken clouds.7 mph54%30.21 "HgN/A
10:20 AM54 °FPartly sunny.7 mph63%30.21 "HgN/A
9:50 AM50 °FPartly sunny.8 mph71%30.21 "HgN/A
9:20 AM50 °FPartly sunny.7 mph67%30.21 "HgN/A
8:50 AM48 °FBroken clouds.7 mph71%30.21 "HgN/A
8:20 AM48 °FPartly sunny.7 mph76%30.21 "HgN/A
7:50 AM48 °FPartly sunny.5 mph76%30.21 "HgN/A
7:20 AM46 °FSunny.5 mph82%30.21 "Hg10 mi
6:50 AM46 °FSunny.5 mph82%30.21 "Hg10 mi
6:20 AM45 °FClear.3 mph87%30.21 "Hg10 mi
8:50 PM
Tue, May 26
50 °FPartly sunny.5 mph71%30.12 "HgN/A
8:20 PM50 °FBroken clouds.9 mph71%30.12 "HgN/A
7:50 PM52 °FPartly sunny.7 mph72%30.12 "HgN/A
7:20 PM54 °FBroken clouds.7 mph63%30.09 "HgN/A
6:50 PM54 °FPartly sunny.8 mph58%30.09 "HgN/A
6:20 PM54 °FSunny.8 mph58%30.07 "Hg10 mi
5:50 PM54 °FSunny.7 mph63%30.07 "Hg10 mi
5:20 PM54 °FBroken clouds.9 mph58%30.07 "HgN/A
4:50 PM55 °FPartly sunny.15 mph55%30.07 "HgN/A
4:20 PM55 °FPartly sunny.15 mph51%30.07 "HgN/A
3:50 PM57 °FBroken clouds.16 mph51%30.04 "HgN/A
3:20 PM59 °FBroken clouds.14 mph55%30.04 "HgN/A
2:50 PM59 °FBroken clouds.13 mph51%30.04 "HgN/A
2:20 PM59 °FPartly sunny.9 mph55%30.04 "HgN/A
1:50 PM57 °FPartly sunny.9 mph51%30.04 "HgN/A
1:20 PM57 °FPartly sunny.10 mph51%30.04 "HgN/A
12:50 PM57 °FBroken clouds.9 mph55%30.04 "HgN/A
12:20 PM57 °FBroken clouds.10 mph51%30.04 "HgN/A
Weather by CustomWeather, © 2015

See weather overviewHow to use our weather pages